Location: Rottenacker
(48.2350°N, 9.6886°E)
Time: 23:23:46
(UTC+01:00)

Amateur Radio Satellites - All Passes

Search period start: 24 November 2017 22:53
Search period end: 25 November 2017 22:53
Location: Rottenacker, 48.2350°N, 9.6886°E

Satellite Date Start Highest point End Downlink Frequencies (MHz)
Time Altitude Azimuth
PCSat 24 Nov 23:11:49 23:16:28 30° 111° (ESE) 23:21:07 145.827
LO-87 24 Nov 23:12:49 23:16:11 37° 262° (W) 23:19:34 145.935 - 145.965
SPROUT 24 Nov 23:17:06 23:21:07 40° 69° (ENE) 23:25:08 437.525
QB50P2 24 Nov 23:17:09 23:19:48 16° 90° (E) 23:22:26 145.880/145.840
ISS 24 Nov 23:20:45 23:23:54 44° 2° (N) 23:27:04 437.550
SO-50 24 Nov 23:21:33 23:25:07 23° 328° (NNW) 23:28:44 436.795
PRISM 24 Nov 23:24:20 23:28:28 63° 288° (WNW) 23:32:34 437.425
O/OREOS (USA 219) 24 Nov 23:24:47 23:28:44 30° 255° (WSW) 23:32:39 437.305
DX 1 24 Nov 23:26:30 23:27:14 10° 54° (NE) 23:27:59 434.975-435.025
AIST 2D 24 Nov 23:27:53 23:31:21 51° 100° (E) 23:34:49 435.315
FO-29 24 Nov 23:36:19 23:41:05 18° 313° (NW) 23:45:45 435.910
UNISAT 6 24 Nov 23:37:04 23:40:11 20° 298° (WNW) 23:43:16 437.425
TIGRISAT 24 Nov 23:40:20 23:43:26 20° 298° (WNW) 23:46:31 435.000
50 SAT 24 Nov 23:53:54 23:55:26 13° 62° (ENE) 23:56:59 437.505
UKube-1 24 Nov 23:58:43 00:00:53 14° 57° (ENE) 00:03:02 .
DUCHIFAT 1 24 Nov 23:59:39 00:03:21 30° 96° (E) 00:07:01 145.980
nSIGHT-1 25 Nov 00:00:33 00:03:43 53° 13° (NNE) 00:06:52 .
EO-79 25 Nov 00:11:40 00:15:46 51° 100° (E) 00:19:51 145.935-145.965
NANOSAT C BR1 25 Nov 00:12:16 00:16:19 46° 99° (E) 00:20:20 145.865
ESTCUBE 1 25 Nov 00:24:58 00:27:17 14° 272° (W) 00:29:37 437.505/2401.250
VELOX 1 25 Nov 00:25:17 00:29:41 65° 258° (WSW) 00:34:09 145.980
POLYITAN 1 25 Nov 00:28:03 00:32:16 76° 104° (ESE) 00:36:26 437.675
BUGSAT 1 25 Nov 00:37:14 00:40:10 19° 92° (E) 00:43:04 437.445
Oscar 19 25 Nov 00:40:22 00:43:12 15° 88° (E) 00:46:02 437.125/150
RS-15 25 Nov 00:43:37 00:55:01 43° 23° (NNE) 01:05:52 29.354- 29.394
QB50P2 25 Nov 00:51:48 00:55:56 55° 288° (WNW) 01:00:02 145.880/145.840
SPROUT 25 Nov 00:53:44 00:57:09 23° 267° (W) 01:00:34 437.525
PCSat 25 Nov 00:54:19 00:59:37 52° 311° (NW) 01:04:56 145.827
ISS 25 Nov 00:57:19 01:00:36 86° 20° (NNE) 01:03:52 437.550
DX 1 25 Nov 00:58:15 01:02:36 71° 73° (ENE) 01:06:59 434.975-435.025
ITUPSAT 1 25 Nov 01:00:33 01:01:35 11° 52° (NE) 01:02:38 437.325
AIST 2D 25 Nov 01:02:17 01:04:08 14° 297° (WNW) 01:05:59 435.315
SO-50 25 Nov 01:06:10 01:07:16 11° 352° (N) 01:08:21 436.795
50 SAT 25 Nov 01:24:01 01:27:08 46° 259° (W) 01:30:18 437.505
UKube-1 25 Nov 01:31:57 01:36:17 83° 255° (WSW) 01:40:39 .
DUCHIFAT 1 25 Nov 01:35:21 01:38:57 29° 294° (WNW) 01:42:34 145.980
Gurwin Techsat 1B 25 Nov 01:35:38 01:40:25 32° 95° (E) 01:45:09 435.225
nSIGHT-1 25 Nov 01:36:51 01:39:56 43° 212° (SSW) 01:42:59 .
BEESAT 3 25 Nov 01:40:14 01:43:38 28° 117° (ESE) 01:47:05 437.485
EO-79 25 Nov 01:48:14 01:51:11 19° 298° (WNW) 01:54:07 145.935-145.965
NANOSAT C BR1 25 Nov 01:48:39 01:51:44 20° 297° (WNW) 01:54:49 145.865
AO-91 25 Nov 01:58:26 02:03:00 69° 101° (ESE) 02:07:03 145.960
POLYITAN 1 25 Nov 02:05:22 02:07:28 14° 301° (WNW) 02:09:35 437.675
MOZHAYETS 4 25 Nov 02:08:47 02:13:08 46° 70° (ENE) 02:17:31
BUGSAT 1 25 Nov 02:11:54 02:15:43 42° 290° (WNW) 02:19:30 437.445
AO-7 25 Nov 02:15:11 02:19:57 16° 85° (E) 02:24:43 .
Oscar 19 25 Nov 02:17:59 02:23:11 84° 286° (WNW) 02:28:22 437.125/150
BEESAT 25 Nov 02:21:27 02:26:03 51° 69° (ENE) 02:30:41 436.000
CUBESAT XI-V 25 Nov 02:31:54 02:35:25 22° 62° (ENE) 02:38:59 437.345
ITUPSAT 1 25 Nov 02:33:46 02:38:30 64° 71° (ENE) 02:43:14 437.325
ISS 25 Nov 02:34:16 02:36:46 20° 220° (SW) 02:39:14 437.550
DX 1 25 Nov 02:37:01 02:39:17 14° 271° (W) 02:41:33 434.975-435.025
PCSat 25 Nov 02:40:54 02:44:17 16° 334° (NNW) 02:47:40 145.827
ITAMSAT 1 25 Nov 02:42:21 02:44:08 12° 86° (E) 02:45:55 435.822/435.867
SO-50 25 Nov 02:47:36 02:49:45 13° 17° (NNE) 02:51:56 436.795
M-CUBED/EXP-1 PRIME 25 Nov 02:54:51 02:59:00 33° 102° (ESE) 03:03:12 437.505
RS-15 25 Nov 02:57:08 03:09:12 88° 54° (NE) 03:20:33 29.354- 29.394
AO-85 25 Nov 02:57:29 03:00:16 19° 113° (ESE) 03:03:09 145.980
BEESAT 2 25 Nov 03:00:45 03:04:40 53° 123° (ESE) 03:08:38 435.950
Gurwin Techsat 1B 25 Nov 03:15:28 03:20:27 41° 294° (WNW) 03:25:23 435.225
BEESAT 3 25 Nov 03:17:17 03:21:03 39° 316° (NW) 03:24:51 437.485
YUBILEINY 25 Nov 03:24:33 03:28:27 14° 70° (ENE) 03:32:21 435.215
KKS-1 25 Nov 03:32:28 03:35:55 22° 62° (ENE) 03:39:22 437.445
AO-91 25 Nov 03:36:04 03:38:49 16° 303° (WNW) 03:41:23 145.960
STARS 25 Nov 03:46:28 03:48:43 14° 57° (ENE) 03:50:58 437.465
MOZHAYETS 4 25 Nov 03:47:00 03:50:31 22° 268° (W) 03:54:04
Oscar 19 25 Nov 03:58:53 04:01:45 15° 305° (NW) 04:04:37 437.125/150
BEESAT 25 Nov 04:00:26 04:04:06 22° 268° (W) 04:07:48 436.000
AO-7 25 Nov 04:05:51 04:14:13 71° 106° (ESE) 04:22:34 .
CUBESAT XI-V 25 Nov 04:08:00 04:12:28 50° 261° (W) 04:17:00 437.345
ITUPSAT 1 25 Nov 04:13:36 04:16:45 17° 270° (W) 04:19:56 437.325
ITAMSAT 1 25 Nov 04:19:12 04:24:27 79° 104° (ESE) 04:29:39 435.822/435.867
SO-50 25 Nov 04:27:15 04:31:31 36° 40° (NE) 04:35:50 436.795
M-CUBED/EXP-1 PRIME 25 Nov 04:29:11 04:33:20 35° 299° (WNW) 04:37:34 437.505
PCSat 25 Nov 04:29:36 04:30:08 10° 1° (N) 04:30:40 145.827
AO-85 25 Nov 04:36:24 04:40:15 53° 313° (NW) 04:44:21 145.980
BEESAT 2 25 Nov 04:39:16 04:42:39 25° 322° (NW) 04:46:04 435.950
DOVE 4 25 Nov 04:55:51 05:00:42 39° 96° (E) 05:05:17 437.250
BEESAT 3 25 Nov 04:58:19 04:59:39 11° 338° (NNW) 05:01:00 437.485
STRAND 1 25 Nov 05:06:34 05:09:01 14° 53° (NE) 05:11:28 437.568
KKS-1 25 Nov 05:07:50 05:12:10 48° 260° (W) 05:16:33 437.445
RS-15 25 Nov 05:10:40 05:20:09 30° 257° (WSW) 05:29:18 29.354- 29.394
YUBILEINY 25 Nov 05:14:45 05:23:20 63° 92° (E) 05:32:00 435.215
STARS 25 Nov 05:19:59 05:24:26 84° 259° (WSW) 05:28:53 437.465
XW-2C 25 Nov 05:35:05 05:37:40 17° 91° (E) 05:40:16 145.795 - 145.815
HO-68 25 Nov 05:39:07 05:40:49 11° 81° (E) 05:42:32 435.675
XW-2F 25 Nov 05:41:42 05:44:28 19° 92° (E) 05:47:13 145.980 - 146.000
LilacSat-2 25 Nov 05:41:59 05:45:02 22° 93° (E) 05:48:04 437.200
AO-7 25 Nov 05:59:13 06:06:27 34° 308° (NW) 06:13:40 .
ITAMSAT 1 25 Nov 05:59:49 06:03:18 18° 304° (NW) 06:06:47 435.822/435.867
KAITUO 1B 25 Nov 06:02:00 06:05:09 24° 94° (E) 06:08:17 145.475/437.950
SO-50 25 Nov 06:07:42 06:12:04 42° 240° (WSW) 06:16:30 436.795
PCSat 25 Nov 06:12:25 06:15:57 17° 27° (NNE) 06:19:27 145.827
AO-85 25 Nov 06:19:26 06:21:39 14° 337° (NNW) 06:23:57 145.980
CUTE-I 25 Nov 06:20:47 06:25:54 43° 98° (E) 06:30:58 437.470
FO-29 25 Nov 06:21:27 06:27:03 25° 53° (NE) 06:33:00 435.910
XW-2D 25 Nov 06:27:23 06:31:12 67° 101° (E) 06:35:00 145.860 - 145.880
DOVE 4 25 Nov 06:33:42 06:38:15 32° 295° (WNW) 06:42:36 437.250
NUDT-PHONESAT 25 Nov 06:38:51 06:42:33 60° 101° (E) 06:46:14 437.300
STRAND 1 25 Nov 06:42:12 06:47:21 75° 72° (ENE) 06:52:30 437.568
XW-2B 25 Nov 06:42:22 06:46:13 86° 281° (WNW) 06:50:03 145.730 - 145.750
XW-2C 25 Nov 07:08:25 07:12:04 43° 289° (WNW) 07:15:42 145.795 - 145.815
CUTE 1.7 + AOD 2 25 Nov 07:10:18 07:14:28 47° 99° (E) 07:18:36 437.475
YUBILEINY 25 Nov 07:12:51 07:20:43 35° 295° (WNW) 07:28:40 435.215
CUBEBUG 2 25 Nov 07:14:28 07:18:10 30° 95° (E) 07:21:50 437.445
XW-2F 25 Nov 07:15:10 07:18:43 38° 290° (WNW) 07:22:17 145.980 - 146.000
LilacSat-2 25 Nov 07:15:53 07:19:22 34° 291° (WNW) 07:22:52 437.200
HO-68 25 Nov 07:23:00 07:30:07 59° 102° (ESE) 07:37:10 435.675
AAUSAT CUBESAT 2 25 Nov 07:26:50 07:30:01 21° 92° (E) 07:33:10 437.432
SEEDS 25 Nov 07:32:27 07:36:36 50° 99° (E) 07:40:44 437.485
KAITUO 1B 25 Nov 07:35:48 07:39:07 29° 292° (WNW) 07:42:26 145.475/437.950
ZACube-1 25 Nov 07:43:21 07:46:25 20° 92° (E) 07:49:30 437.345
AO-7 25 Nov 07:54:23 07:56:44 11° 332° (NNW) 07:59:04 .
PCSat 25 Nov 07:55:11 08:00:34 56° 50° (NE) 08:05:52 145.827
CUTE-I 25 Nov 08:01:06 08:05:50 32° 297° (WNW) 08:10:30 437.470
UWE-3 25 Nov 08:02:04 08:06:09 55° 100° (E) 08:10:14 435.000/436.395/437.385
XW-2D 25 Nov 08:03:05 08:04:52 13° 299° (WNW) 08:06:39 145.860 - 145.880
FO-29 25 Nov 08:04:08 08:11:06 88° 256° (WSW) 08:18:51 435.910
NUDT-PHONESAT 25 Nov 08:14:05 08:15:56 13° 299° (WNW) 08:17:47 437.300
BEESAT 3 25 Nov 08:16:21 08:18:24 14° 26° (NNE) 08:20:26 437.485
STRAND 1 25 Nov 08:23:52 08:27:06 17° 271° (W) 08:30:20 437.568
XW-2A 25 Nov 08:28:03 08:31:26 74° 284° (WNW) 08:34:48 145.665 - 145.685
AO-73 25 Nov 08:30:59 08:35:04 53° 100° (E) 08:39:10 145.935
Oscar 11 25 Nov 08:42:30 08:46:43 48° 99° (E) 08:50:56 .
PRISM 25 Nov 08:42:56 08:45:43 18° 61° (ENE) 08:48:30 437.425
CUTE 1.7 + AOD 2 25 Nov 08:46:49 08:50:00 21° 297° (WNW) 08:53:11 437.475
CUBEBUG 2 25 Nov 08:51:10 08:54:45 28° 294° (WNW) 08:58:16 437.445
DELFI C3 25 Nov 08:53:05 08:55:13 14° 89° (E) 08:57:19 145.870
UNISAT 6 25 Nov 09:01:22 09:05:51 67° 73° (ENE) 09:10:16 437.425
AAUSAT CUBESAT 2 25 Nov 09:01:40 09:05:39 42° 290° (WNW) 09:09:36 437.432
TIGRISAT 25 Nov 09:04:31 09:09:00 66° 72° (ENE) 09:13:23 435.000
Max Valier Satellite 25 Nov 09:05:18 09:06:46 12° 89° (E) 09:08:13 145.860
SEEDS 25 Nov 09:08:53 09:11:57 20° 297° (WNW) 09:15:00 437.485
HO-68 25 Nov 09:11:12 09:17:32 35° 302° (WNW) 09:23:50 435.675
ZACube-1 25 Nov 09:18:58 09:22:55 43° 290° (WNW) 09:26:53 437.345
BEESAT 2 25 Nov 09:37:45 09:40:46 20° 33° (NNE) 09:43:46 435.950
PCSat 25 Nov 09:39:06 09:43:38 28° 250° (WSW) 09:48:10 145.827
UWE-3 25 Nov 09:39:31 09:42:14 17° 298° (WNW) 09:44:56 435.000/436.395/437.385
AO-85 25 Nov 09:43:27 09:46:17 16° 27° (NNE) 09:49:15 145.980
POLYITAN 1 25 Nov 09:51:07 09:52:40 12° 57° (ENE) 09:54:14 437.675
FO-29 25 Nov 09:52:21 09:57:17 20° 277° (W) 10:02:33 435.910
BEESAT 3 25 Nov 09:52:52 09:56:47 55° 48° (NE) 10:00:38 437.485
AIST 2D 25 Nov 10:05:20 10:08:26 31° 70° (ENE) 10:11:34 435.315
AO-73 25 Nov 10:08:09 10:10:57 18° 298° (WNW) 10:13:45 145.935
QB50P2 25 Nov 10:12:56 10:16:05 21° 63° (ENE) 10:19:13 145.880/145.840
PRISM 25 Nov 10:16:31 10:20:35 55° 259° (W) 10:24:42 437.425
FALCONSAT 3 25 Nov 10:16:43 10:17:58 11° 180° (S) 10:19:14 435.103
Oscar 11 25 Nov 10:19:19 10:22:33 21° 297° (WNW) 10:25:46 .
EO-88 25 Nov 10:25:17 10:28:57 69° 101° (ESE) 10:32:36 145.990 - 145.960
DELFI C3 25 Nov 10:26:23 10:30:20 59° 287° (WNW) 10:34:15 145.870
ESTCUBE 1 25 Nov 10:36:07 10:37:53 12° 87° (E) 10:39:40 437.505/2401.250
LO-87 25 Nov 10:37:01 10:38:39 13° 90° (E) 10:40:16 145.935 - 145.965
Max Valier Satellite 25 Nov 10:37:19 10:40:57 59° 287° (WNW) 10:44:34 145.860
UNISAT 6 25 Nov 10:40:26 10:43:00 15° 271° (W) 10:45:33 437.425
TIGRISAT 25 Nov 10:43:29 10:46:06 15° 271° (W) 10:48:41 435.000
DUCHIFAT 1 25 Nov 10:54:28 10:58:19 35° 68° (ENE) 11:02:09 145.980
EO-79 25 Nov 11:07:01 11:11:11 61° 73° (ENE) 11:15:23 145.935-145.965
NANOSAT C BR1 25 Nov 11:07:17 11:11:25 54° 71° (ENE) 11:15:32 145.865
BEESAT 2 25 Nov 11:14:55 11:18:59 79° 233° (SW) 11:22:59 435.950
AO-85 25 Nov 11:23:03 11:27:35 58° 48° (NE) 11:32:28 145.980
POLYITAN 1 25 Nov 11:23:33 11:27:47 89° 69° (ENE) 11:32:02 437.675
AO-91 25 Nov 11:23:33 11:26:47 16° 57° (ENE) 11:29:58 145.960
Gurwin Techsat 1B 25 Nov 11:23:51 11:26:23 14° 53° (NE) 11:28:57 435.225
BUGSAT 1 25 Nov 11:30:02 11:33:21 23° 64° (ENE) 11:36:39 437.445
BEESAT 3 25 Nov 11:31:12 11:33:57 18° 247° (WSW) 11:36:39 437.485
AO-7 25 Nov 11:31:46 11:34:25 12° 29° (NNE) 11:37:03 .
AIST 2D 25 Nov 11:39:10 11:41:42 19° 267° (W) 11:44:15 435.315
QB50P2 25 Nov 11:47:29 11:51:34 47° 261° (W) 11:55:40 145.880/145.840
Oscar 19 25 Nov 12:00:06 12:04:33 32° 64° (ENE) 12:09:04 437.125/150
EO-88 25 Nov 12:00:43 12:02:04 12° 300° (WNW) 12:03:25 145.990 - 145.960
O/OREOS (USA 219) 25 Nov 12:02:05 12:05:26 20° 101° (ESE) 12:08:47 437.305
LO-87 25 Nov 12:08:55 12:12:21 50° 288° (WNW) 12:15:47 145.935 - 145.965
ESTCUBE 1 25 Nov 12:10:45 12:15:18 85° 286° (WNW) 12:19:51 437.505/2401.250
VELOX 1 25 Nov 12:12:17 12:15:25 18° 91° (E) 12:18:32 145.980
DUCHIFAT 1 25 Nov 12:30:33 12:34:02 25° 266° (W) 12:37:32 145.980
SPROUT 25 Nov 12:34:25 12:38:31 45° 99° (E) 12:42:34 437.525
NANOSAT C BR1 25 Nov 12:44:43 12:47:27 17° 269° (W) 12:50:10 145.865
EO-79 25 Nov 12:44:52 12:47:20 15° 270° (W) 12:49:49 145.935-145.965
AO-91 25 Nov 12:57:05 13:02:30 86° 75° (ENE) 13:07:49 145.960
Gurwin Techsat 1B 25 Nov 13:00:09 13:05:26 73° 72° (ENE) 13:10:46 435.225
POLYITAN 1 25 Nov 13:03:51 13:04:11 10° 273° (W) 13:04:31 437.675
AO-85 25 Nov 13:03:56 13:07:46 25° 245° (WSW) 13:11:48 145.980
BUGSAT 1 25 Nov 13:04:36 13:08:31 38° 262° (W) 13:12:24 437.445
UKube-1 25 Nov 13:16:58 13:18:50 12° 89° (E) 13:20:42 .
AO-7 25 Nov 13:17:29 13:24:46 36° 53° (NE) 13:32:04 .
Oscar 19 25 Nov 13:38:59 13:43:46 40° 262° (W) 13:48:37 437.125/150
O/OREOS (USA 219) 25 Nov 13:39:56 13:44:27 54° 300° (WNW) 13:49:00 437.305
M-CUBED/EXP-1 PRIME 25 Nov 13:43:38 13:47:21 65° 67° (ENE) 13:51:24 437.505
VELOX 1 25 Nov 13:47:49 13:52:11 54° 290° (WNW) 13:56:30 145.980
ESTCUBE 1 25 Nov 13:49:26 13:51:23 13° 304° (NW) 13:53:21 437.505/2401.250
ITAMSAT 1 25 Nov 14:02:29 14:06:54 28° 62° (ENE) 14:11:19 435.822/435.867
50 SAT 25 Nov 14:09:13 14:12:27 81° 101° (E) 14:15:39 437.505
SPROUT 25 Nov 14:10:55 14:14:07 21° 297° (WNW) 14:17:18 437.525
NO-84 25 Nov 14:12:07 14:15:32 41° 138° (SE) 14:19:14 435.350 FM
DX 1 25 Nov 14:18:40 14:23:05 80° 104° (ESE) 14:27:27 434.975-435.025
DOVE 4 25 Nov 14:30:55 14:32:14 11° 51° (NE) 14:33:34 437.250
ITUPSAT 1 25 Nov 14:32:29 14:34:21 12° 87° (E) 14:36:14 437.325
AO-91 25 Nov 14:36:16 14:39:30 16° 273° (W) 14:42:44 145.960
Gurwin Techsat 1B 25 Nov 14:42:22 14:45:57 18° 271° (W) 14:49:32 435.225
UKube-1 25 Nov 14:51:02 14:55:23 76° 287° (WNW) 14:59:42 .
AO-7 25 Nov 15:08:50 15:17:04 67° 255° (WSW) 15:25:23 .
YUBILEINY 25 Nov 15:20:20 15:28:30 39° 67° (ENE) 15:36:35 435.215
M-CUBED/EXP-1 PRIME 25 Nov 15:20:33 15:22:17 13° 267° (W) 15:24:05 437.505
O/OREOS (USA 219) 25 Nov 15:23:42 15:24:57 11° 322° (NW) 15:26:13 437.305
MOZHAYETS 4 25 Nov 15:36:42 15:41:16 66° 102° (ESE) 15:45:49
ITAMSAT 1 25 Nov 15:41:05 15:46:08 48° 260° (W) 15:51:13 435.822/435.867
NO-84 25 Nov 15:49:10 15:52:51 48° 339° (NNW) 15:56:48 435.350 FM
BEESAT 25 Nov 15:55:10 15:59:56 72° 103° (ESE) 16:04:40 436.000
DX 1 25 Nov 15:56:19 15:58:40 14° 303° (WNW) 16:01:01 434.975-435.025
CUBESAT XI-V 25 Nov 16:00:42 16:04:52 31° 95° (E) 16:09:01 437.345
DOVE 4 25 Nov 16:03:44 16:08:47 57° 71° (ENE) 16:14:00 437.250
ITUPSAT 1 25 Nov 16:08:04 16:12:52 89° 270° (W) 16:17:37 437.325
CUTE-I 25 Nov 16:08:39 16:12:09 18° 56° (NE) 16:15:40 437.470
HO-68 25 Nov 16:11:27 16:15:39 17° 45° (NE) 16:19:50 435.675
XW-2C 25 Nov 16:20:17 16:22:28 15° 62° (ENE) 16:24:40 145.795 - 145.815
XW-2F 25 Nov 16:26:20 16:28:41 16° 63° (ENE) 16:31:03 145.980 - 146.000
LilacSat-2 25 Nov 16:27:35 16:30:17 19° 64° (ENE) 16:33:00 437.200
UKube-1 25 Nov 16:29:32 16:30:38 11° 305° (NW) 16:31:43 .
KAITUO 1B 25 Nov 16:45:32 16:48:16 20° 65° (ENE) 16:51:01 145.475/437.950
KKS-1 25 Nov 16:55:17 16:58:56 24° 94° (E) 17:02:32 437.445
STARS 25 Nov 17:07:09 17:09:19 13° 89° (E) 17:11:27 437.465
AO-7 25 Nov 17:07:13 17:11:27 15° 276° (W) 17:15:43 .
XW-2D 25 Nov 17:11:39 17:15:17 52° 73° (ENE) 17:18:58 145.860 - 145.880
MOZHAYETS 4 25 Nov 17:14:56 17:17:57 18° 300° (WNW) 17:20:56
YUBILEINY 25 Nov 17:17:07 17:25:43 58° 269° (W) 17:34:15 435.215
NUDT-PHONESAT 25 Nov 17:20:55 17:24:24 44° 71° (ENE) 17:27:55 437.300
RS-15 25 Nov 17:24:28 17:35:25 40° 108° (ESE) 17:46:17 29.354- 29.394
XW-2B 25 Nov 17:26:33 17:30:17 75° 75° (ENE) 17:34:03 145.730 - 145.750
NO-84 25 Nov 17:27:16 17:30:50 31° 0° (N) 17:34:35 435.350 FM
BEESAT 25 Nov 17:34:04 17:37:11 18° 302° (WNW) 17:40:18 436.000
CUBESAT XI-V 25 Nov 17:38:00 17:42:15 35° 293° (WNW) 17:46:31 437.345
DOVE 4 25 Nov 17:42:45 17:46:48 23° 270° (W) 17:50:58 437.250
CUTE-I 25 Nov 17:46:08 17:51:31 85° 255° (WSW) 17:56:57 437.470
ITUPSAT 1 25 Nov 17:47:30 17:50:00 14° 304° (NW) 17:52:29 437.325
XW-2C 25 Nov 17:52:36 17:56:15 52° 260° (W) 17:59:57 145.795 - 145.815
HO-68 25 Nov 17:54:59 18:02:02 63° 67° (ENE) 18:09:09 435.675
XW-2F 25 Nov 17:58:51 18:02:26 47° 261° (W) 18:06:05 145.980 - 146.000
LilacSat-2 25 Nov 18:00:45 18:04:18 39° 262° (W) 18:07:53 437.200
CUTE 1.7 + AOD 2 25 Nov 18:06:03 18:10:08 51° 72° (ENE) 18:14:15 437.475
CUBEBUG 2 25 Nov 18:15:27 18:19:40 41° 70° (ENE) 18:23:47 437.445
KAITUO 1B 25 Nov 18:18:36 18:22:01 36° 263° (W) 18:25:29 145.475/437.950
AAUSAT CUBESAT 2 25 Nov 18:20:16 18:23:28 22° 64° (ENE) 18:26:43 437.432
SEEDS 25 Nov 18:27:08 18:31:12 53° 72° (ENE) 18:35:19 437.485
KKS-1 25 Nov 18:31:26 18:35:38 41° 292° (WNW) 18:39:48 437.445
STARS 25 Nov 18:41:46 18:46:10 73° 287° (WNW) 18:50:31 437.465
ZACube-1 25 Nov 18:42:25 18:45:53 25° 65° (ENE) 18:49:19 437.345
XW-2D 25 Nov 18:47:49 18:49:47 14° 270° (W) 18:51:45 145.860 - 145.880
STRAND 1 25 Nov 18:49:52 18:53:31 19° 90° (E) 18:57:08 437.568
NUDT-PHONESAT 25 Nov 18:56:17 18:58:30 15° 269° (W) 19:00:43 437.300
UWE-3 25 Nov 19:02:01 19:06:22 69° 73° (ENE) 19:10:37 435.000/436.395/437.385
XW-2A 25 Nov 19:02:02 19:05:19 61° 74° (ENE) 19:08:36 145.665 - 145.685
NO-84 25 Nov 19:04:52 19:08:51 47° 21° (NNE) 19:12:58 435.350 FM
FO-29 25 Nov 19:12:00 19:16:11 15° 80° (E) 19:20:12 435.910
ISS 25 Nov 19:16:22 19:18:40 18° 139° (SE) 19:20:59 437.550
YUBILEINY 25 Nov 19:17:24 19:20:26 12° 292° (WNW) 19:23:28 435.215
AO-73 25 Nov 19:29:33 19:33:44 64° 74° (ENE) 19:37:53 145.935
CUTE-I 25 Nov 19:29:51 19:32:22 13° 274° (W) 19:34:55 437.470
RS-15 25 Nov 19:34:44 19:47:07 77° 312° (NW) 19:59:22 29.354- 29.394
Oscar 11 25 Nov 19:40:24 19:44:36 57° 72° (ENE) 19:48:51 .
DELFI C3 25 Nov 19:41:59 19:44:08 14° 60° (ENE) 19:46:17 145.870
CUTE 1.7 + AOD 2 25 Nov 19:43:28 19:46:17 17° 270° (W) 19:49:07 437.475
HO-68 25 Nov 19:44:01 19:50:13 31° 266° (W) 19:56:28 435.675
Max Valier Satellite 25 Nov 19:48:53 19:49:22 10° 59° (ENE) 19:49:51 145.860
nSIGHT-1 25 Nov 19:51:54 19:54:56 39° 147° (SSE) 19:57:58 .
CUBEBUG 2 25 Nov 19:52:48 19:56:25 24° 267° (W) 19:59:58 437.445
AAUSAT CUBESAT 2 25 Nov 19:54:47 19:58:41 41° 262° (W) 20:02:39 437.432
SEEDS 25 Nov 20:04:31 20:07:13 17° 270° (W) 20:09:57 437.485
ZACube-1 25 Nov 20:18:05 20:22:01 36° 263° (W) 20:25:56 437.345
STARS 25 Nov 20:20:48 20:21:42 11° 306° (NW) 20:22:36 437.465
SO-50 25 Nov 20:25:35 20:29:15 25° 115° (ESE) 20:32:58 436.795
STRAND 1 25 Nov 20:28:05 20:33:09 64° 289° (WNW) 20:38:11 437.568
O/OREOS (USA 219) 25 Nov 20:29:07 20:31:20 13° 41° (NE) 20:33:31 437.305
UWE-3 25 Nov 20:41:04 20:43:15 14° 271° (W) 20:45:26 435.000/436.395/437.385
NO-84 25 Nov 20:42:13 20:46:18 51° 219° (SW) 20:50:26 435.350 FM
ISS 25 Nov 20:51:29 20:54:46 86° 156° (SSE) 20:58:03 437.550
FO-29 25 Nov 20:54:50 21:02:42 68° 101° (E) 21:09:59 435.910
EO-88 25 Nov 21:05:52 21:09:23 49° 72° (ENE) 21:12:54 145.990 - 145.960
AO-73 25 Nov 21:08:08 21:10:23 14° 271° (W) 21:12:37 145.935
DELFI C3 25 Nov 21:14:25 21:18:22 66° 258° (WSW) 21:22:22 145.870
LO-87 25 Nov 21:17:34 21:18:18 10° 60° (ENE) 21:19:01 145.935 - 145.965
Oscar 11 25 Nov 21:18:24 21:21:06 16° 270° (W) 21:23:50 .
Max Valier Satellite 25 Nov 21:18:57 21:22:36 81° 257° (WSW) 21:26:16 145.860
nSIGHT-1 25 Nov 21:27:56 21:31:07 56° 346° (NNW) 21:34:18 .
ESTCUBE 1 25 Nov 21:38:31 21:41:34 18° 60° (ENE) 21:44:40 437.505/2401.250
RS-15 25 Nov 21:50:30 22:01:53 40° 342° (NNW) 22:12:56 29.354- 29.394
PRISM 25 Nov 21:55:02 21:57:34 16° 90° (E) 22:00:05 437.425
SO-50 25 Nov 22:05:05 22:09:27 50° 315° (NW) 22:13:54 436.795
O/OREOS (USA 219) 25 Nov 22:07:03 22:11:38 71° 62° (ENE) 22:16:08 437.305
STRAND 1 25 Nov 22:09:42 22:11:22 12° 308° (NW) 22:13:00 437.568
UNISAT 6 25 Nov 22:25:47 22:30:05 89° 286° (WNW) 22:34:21 437.425
ISS 25 Nov 22:28:16 22:31:26 44° 356° (N) 22:34:37 437.550
TIGRISAT 25 Nov 22:28:44 22:33:02 89° 106° (ESE) 22:37:17 435.000
FO-29 25 Nov 22:40:22 22:47:08 33° 302° (WNW) 22:53:35 435.910
EO-88 25 Nov 22:41:23 22:43:18 14° 270° (W) 22:45:14 145.990 - 145.960
PCSat 25 Nov 22:41:36 22:45:43 23° 108° (ESE) 22:49:52 145.827
